Flag for Germany Weather past 2 weeks in Dietzenbach, Hesse, Germany

Now
38 °F

Overcast.


Feels Like: 34 °F
Forecast: 37 / 46 °F
Wind: 6 mph from South

Location: Frankfurt / M-Flughafen

Current Time: Mar 1, 2015 at 3:59:57 AM

Latest Report: Mar 1, 2015 at 3:00 AM


Visibility: 16 mi

Pressure: 29.87 "Hg

Humidity: 76%

Dew point: 31 °F

Location of DietzenbachLocation

Historic Weather in Dietzenbach — Graph

°F

Dietzenbach temperature yesterday

Maximum temperature yesterday: 45 °F (at 2:00 PM)
Minimum temperature yesterday: 29 °F (at 7:00 AM)
Average temperature yesterday: 38 °F

Past Weeks' High & Low Weather Summary

 TemperatureHumidityPressure
High52 °F (Feb 20, 5:00 PM)100% (Feb 23, 12:00 PM)30.77 "Hg (Feb 23, 12:00 PM)
Low25 °F (Feb 15, 5:00 AM)51% (Feb 21, 1:00 AM)29.47 "Hg (Feb 21, 6:00 AM)
Average38 °F81%30.04 "Hg
* Reported Feb 14 2:00 AM — Mar 1 2:00 AM, Dietzenbach, Weather by CustomWeather, © 2015

Note: Actual official high and low records may vary slightly from our data, if they occured in-between our weather recording intervals... More about our weather records

Advertising

Dietzenbach weather history for previous 24 hours

 ConditionsComfort  
Time TempWeatherWind HumidityBarometerVisibility
2:00 AM
Sun, Mar 1
37 °FOvercast.5 mph79%29.90 "Hg16 mi
1:00 AM37 °FOvercast.5 mph75%29.93 "Hg16 mi
12:00 AM36 °FPassing clouds.3 mph74%29.96 "Hg16 mi
11:00 PM
Sat, Feb 28
36 °FPassing clouds.3 mph72%29.98 "Hg22 mi
9:00 PM36 °FPassing clouds.2 mph72%30.03 "Hg25 mi
8:00 PM35 °FClear.2 mph83%30.04 "Hg25 mi
7:00 PM38 °FPassing clouds.2 mph73%30.06 "Hg31 mi
6:00 PM42 °FPassing clouds.3 mph62%30.06 "Hg31 mi
5:00 PM45 °FPassing clouds.3 mph54%30.08 "Hg31 mi
4:00 PM45 °FScattered clouds.6 mph53%30.09 "Hg28 mi
3:00 PM45 °FOvercast.6 mph57%30.11 "Hg25 mi
2:00 PM45 °FPartly sunny.5 mph60%30.12 "Hg22 mi
1:00 PM43 °FScattered clouds.5 mph62%30.16 "Hg22 mi
12:00 PM42 °FPassing clouds.3 mph70%30.18 "Hg17 mi
11:00 AM40 °FPassing clouds.2 mph75%30.20 "Hg12 mi
10:00 AM36 °FPassing clouds.3 mph83%30.21 "Hg10 mi
9:00 AM33 °FPassing clouds.3 mph92%30.22 "Hg9 mi
8:00 AM29 °FPassing clouds.2 mph97%30.21 "Hg9 mi
7:00 AM29 °FPassing clouds.2 mph97%30.20 "Hg9 mi
6:00 AM31 °FPassing clouds.2 mph96%30.19 "Hg12 mi
5:00 AM32 °FPassing clouds.2 mph95%30.19 "Hg16 mi
3:00 AM37 °FPassing clouds.5 mph81%30.17 "Hg22 mi
Weather by CustomWeather, © 2015

See weather overviewHow to use our weather pages